Terminal Aerodrome Forecast
Issued by NWS

Home | Current Version | Previous Version | Text Only | Print | Product List | Glossary On
Versions: 1 2 3 4 5 6 7 8 9 10 11 12 13 14 15 16 17 18 19 20 21 22 23 24 25 26 27 28 29 30
000
FTUS45 KGJT 282334
TAFMTJ
TAF
KMTJ 282334Z 2900/2924 34004KT P6SM BKN090
     FM290200 19005KT P6SM OVC070
     FM290800 15005KT 5SM -SN BR OVC030
     FM291200 14004KT 3SM -SN BR SCT015 OVC030
     FM291800 35005KT 5SM -SN BR SCT020 BKN045=

USA.gov is the U.S. government's official web portal to all federal, state and local government web resources and services.